Bookmark and Share
Track history (hours):
 

Iris Victoria

Last reported at 2014-Apr-18 18:31 UTC. Time now 2014-Apr-24 06:18 UTC.
Position N 50°09' W 001°56'.

Length 228 m; draft 14.5 m.

Type: Ship. MMSI: 538003876.

NotesDate/timePositionNaut miles runAvg speedWind from/ knotsBaromVisibWave heightAir tempDewpointWater temp
2014-Apr-18 18:31N 50°09' W 001°56'1413.8
2014-Apr-18 17:28N 50°13' W 001°34'1415.2
2014-Apr-18 16:33N 50°16' W 001°13'1615.7
2014-Apr-18 15:33N 50°21' W 000°49'1814.4
2014-Apr-18 14:17N 50°25' W 000°22'1013.1
2014-Apr-18 13:32N 50°28' W 000°07'1312.2
2014-Apr-18 12:27N 50°31' E 000°13'1011.2
2014-Apr-18 11:33N 50°34' E 000°28'1110.8
2014-Apr-18 10:33N 50°39' E 000°44'1212.0
2014-Apr-18 09:33N 50°46' E 000°59'1414.0
2014-Apr-18 08:31N 50°54' E 001°17'1515.9
2014-Apr-18 07:34N 51°06' E 001°33'1414.1
2014-Apr-18 06:33N 51°16' E 001°48'1212.3
2014-Apr-18 05:33N 51°27' E 001°58'1311.0
2014-Apr-18 04:24N 51°37' E 002°10'910.5
2014-Apr-18 03:33N 51°44' E 002°20'1110.6
2014-Apr-18 02:31N 51°52' E 002°32'14012.2
2014-Apr-17 15:04N 53°58' E 004°13'5511.5
2014-Apr-17 10:20N 54°46' E 004°58'911.0
2014-Apr-17 09:33N 54°53' E 005°05'1111.1
2014-Apr-17 08:33N 55°03' E 005°15'14310.0
2014-Apr-16 18:18N 57°11' E 007°06'1111.4
2014-Apr-16 17:19N 57°16' E 007°25'3311.3
2014-Apr-16 14:25N 57°30' E 008°20'6111.9
2014-Apr-16 09:19N 57°54' E 010°04'912.1
2014-Apr-16 08:33N 57°54' E 010°22'1111.4
2014-Apr-16 07:33N 57°50' E 010°42'1110.8
2014-Apr-16 06:33N 57°42' E 010°57'1212.5
2014-Apr-16 05:33N 57°34' E 011°13'1212.2
2014-Apr-16 04:33N 57°24' E 011°28'1212.1
2014-Apr-16 03:33N 57°13' E 011°36'1212.3
2014-Apr-16 02:33N 57°01' E 011°44'1312.8
2014-Apr-16 01:33N 56°49' E 011°51'1211.1
2014-Apr-16 00:31N 56°38' E 011°46'1212.9
2014-Apr-15 23:33N 56°27' E 011°35'1512.2
2014-Apr-15 22:19N 56°14' E 011°21'911.9
2014-Apr-15 21:33N 56°07' E 011°11'91 8.2
2014-Apr-15 10:30N 54°36' E 011°02'1010.7
2014-Apr-15 09:34N 54°34' E 011°19'1211.7
2014-Apr-15 08:34N 54°29' E 011°37'1211.9
2014-Apr-15 07:34N 54°27' E 011°57'10 9.7
2014-Apr-15 06:34N 54°30' E 012°13'1111.2
2014-Apr-15 05:34N 54°39' E 012°24'2211.0
2014-Apr-15 03:34N 54°50' E 012°57'1212.0
2014-Apr-15 02:33N 54°54' E 013°17'1212.1
2014-Apr-15 01:34N 54°58' E 013°36'1212.2
2014-Apr-15 00:34N 55°03' E 013°56'1211.8
2014-Apr-14 23:34N 55°10' E 014°13'1212.0
2014-Apr-14 22:34N 55°14' E 014°32'1111.0
2014-Apr-14 21:34N 55°19' E 014°49'5 5.0
2014-Apr-14 20:34N 55°22' E 014°56'8 8.1
2014-Apr-14 19:34N 55°30' E 015°01'1211.6
2014-Apr-14 18:32N 55°38' E 015°16'  
2014-Apr-10 23:31N 56°13' E 018°31'15 7.3
2014-Apr-10 21:31N 56°04' E 018°09'8911.1
2014-Apr-10 13:27N 55°40' E 015°36'1112.1
2014-Apr-10 12:33N 55°36' E 015°19'1212.1
2014-Apr-10 11:33N 55°30' E 014°60'1212.3
2014-Apr-10 10:33N 55°25' E 014°40'1211.8
2014-Apr-10 09:33N 55°16' E 014°27'1111.4
2014-Apr-10 08:33N 55°09' E 014°11'1212.4
2014-Apr-10 07:33N 55°10' E 013°49'1212.2
2014-Apr-10 06:33N 55°10' E 013°28'1212.2
2014-Apr-10 05:33N 55°13' E 013°07'1212.2
2014-Apr-10 04:33N 55°16' E 012°46'1110.6
2014-Apr-10 03:33N 55°26' E 012°39'10 9.5
2014-Apr-10 02:33N 55°35' E 012°42'1110.9
2014-Apr-10 01:33N 55°46' E 012°41'1414.4
2014-Apr-10 00:33N 56°00' E 012°38'1110.8
2014-Apr-09 23:33N 56°09' E 012°26'8 7.6
2014-Apr-09 22:33N 56°13' E 012°15'8 7.9
2014-Apr-09 21:33N 56°18' E 012°03'9 8.5
2014-Apr-09 20:32N 56°26' E 011°60'9 9.2
2014-Apr-09 19:33N 56°35' E 011°56'1212.3
2014-Apr-09 18:33N 56°47' E 011°51'1212.3
2014-Apr-09 17:33N 56°59' E 011°43'1212.4
2014-Apr-09 16:33N 57°10' E 011°35'1312.9
2014-Apr-09 15:33N 57°22' E 011°27'1212.2
2014-Apr-09 14:34N 57°32' E 011°14'1212.0
2014-Apr-09 13:34N 57°40' E 010°57'10 9.8
2014-Apr-09 12:33N 57°41' E 010°39'0 0.2
2014-Apr-09 11:31N 57°41' E 010°39'0 0.0
2014-Apr-09 10:31N 57°41' E 010°39'0 0.0
2014-Apr-09 09:31N 57°41' E 010°39'0 0.0
2014-Apr-09 07:26N 57°41' E 010°39'2 2.2
2014-Apr-09 06:33N 57°41' E 010°43'7 6.6
2014-Apr-09 05:33N 57°47' E 010°47'1111.5
2014-Apr-09 04:33N 57°53' E 010°28'1110.9
2014-Apr-09 03:33N 57°54' E 010°08'1411.5
2014-Apr-09 02:22N 57°51' E 009°43'  

Dump ship's entire track history

sailing weather and tide predictions

Iris Victoria — V7TS8 — position and weather